Wetbulb
60.49 59.05 57.91 56.91 56.07 54.30 51.44 49.72 48.19 46.86 42.23 39.97 39.51 39.00 38.53 38.36 38.92 41.56 42.30 50.89 54.89 57.87 59.90 60.30 59.99 60.18 60.54 60.91 60.85 60.19 59.62 60.05 58.38 59.07 61.07 61.18 60.97 60.88 60.10 59.79 59.99 61.03 61.71
58.80 59.08 57.41 56.18 55.07 53.75 50.71 49.31 47.65 45.49 40.88 38.87 38.93 38.89 38.38 38.02 38.15 40.98 42.55 46.86 54.33 56.92 59.24 59.92 60.58 60.74 60.89 61.05 61.03 61.28 58.96 59.02 57.42 56.72 58.56 59.36 59.61 58.74 57.81 57.71 57.40 58.30 59.66
60.12 59.18 57.24 55.37 55.01 53.02 50.21 47.90 45.99 42.73 39.57 38.27 37.48 37.86 37.74 37.70 37.77 38.63 42.35 45.55 47.64 52.57 57.21 59.33 60.25 61.24 61.66 61.85 62.87 60.36 58.72 57.02 57.03 55.29 57.24 57.85 57.49 56.77 55.28 54.85 55.36 56.01 57.61
60.29 58.02 56.23 55.01 54.87 52.85 51.63 49.33 46.35 41.84 39.51 37.27 35.92 35.93 35.90 36.59 37.42 37.96 40.47 44.13 45.97 47.52 50.47 55.95 58.22 60.44 61.23 60.76 60.44 60.01 58.86 57.30 57.50 55.40 56.61 57.31 57.29 56.09 54.80 54.80 54.82 55.24 55.55
60.06 58.20 56.51 55.08 53.63 52.83 51.04 48.95 43.88 43.05 38.77 36.83 36.38 35.26 34.81 34.91 36.01 37.88 37.52 39.47 44.48 45.74 45.43 49.74 51.36 51.97 57.71 60.21 59.75 60.10 59.64 57.87 57.61 55.37 56.04 55.02 54.45 54.35 54.00 53.89 53.99 54.02 54.37
57.73 56.67 55.62 54.26 53.15 51.80 48.62 45.84 44.15 40.32 37.73 37.22 37.62 36.14 33.74 34.21 34.83 34.85 35.56 38.28 41.78 43.92 43.79 43.59 42.85 44.83 50.12 54.90 59.01 60.85 59.93 59.40 57.18 55.51 55.27 54.51 54.12 54.15 53.95 53.65 53.26 53.30 53.81
54.95 54.54 54.24 53.23 51.62 50.70 49.11 46.36 42.00 40.96 38.85 37.77 34.93 33.89 33.65 34.10 34.00 34.40 34.58 35.53 38.29 39.69 41.15 41.58 40.50 41.02 42.94 52.06 56.26 59.81 59.81 59.39 57.58 56.26 54.63 53.93 53.70 53.30 53.34 53.46 53.39 53.42 53.23
47.43 49.72 49.64 48.60 48.50 47.41 45.35 43.67 41.93 39.72 39.36 37.87 36.62 33.21 31.54 32.99 32.93 33.96 33.68 34.76 35.67 36.89 36.81 38.20 38.10 38.77 39.67 41.36 45.45 54.43 59.11 59.06 58.15 56.41 54.91 54.06 53.34 53.27 53.17 53.18 53.21 53.47 53.35
39.80 41.73 44.57 46.76 45.93 45.43 44.79 43.53 41.80 40.60 39.98 37.87 36.75 37.47 32.69 28.97 28.50 31.18 31.94 32.44 33.49 34.09 34.28 35.02 35.87 36.46 37.33 38.96 43.92 47.87 54.10 57.44 57.89 57.25 55.38 53.80 53.29 52.71 52.96 53.13 53.00 52.86 53.09
36.05 36.74 37.61 39.36 42.32 43.86 43.07 42.12 41.93 40.30 39.22 38.57 36.81 36.83 34.98 34.28 31.72 30.50 30.89 31.21 32.04 33.59 33.02 33.29 33.82 34.45 35.33 36.54 41.15 44.36 47.47 51.68 55.09 57.17 55.05 53.68 52.63 52.36 52.36 52.49 52.64 52.65 52.76
33.82 33.72 34.66 35.18 35.63 36.71 37.62 39.76 40.36 39.39 38.75 38.05 37.28 35.99 34.44 34.44 33.44 31.88 32.16 29.91 30.34 31.68 33.07 33.78 34.06 33.27 34.09 34.48 36.98 40.43 46.18 49.59 52.40 54.56 54.15 52.58 51.83 51.63 51.74 52.03 52.33 52.48 52.64
31.32 31.39 31.91 32.13 33.00 33.53 33.72 34.75 36.19 37.06 38.33 38.58 37.79 36.85 35.56 34.93 33.66 33.11 31.44 32.10 30.82 31.26 31.32 31.73 32.02 34.23 34.08 33.65 37.24 41.65 44.62 47.89 52.68 52.79 52.18 51.41 50.43 50.31 50.61 51.41 51.77 51.92 52.04
28.72 29.22 29.87 29.64 29.97 30.72 31.35 32.18 32.91 33.36 34.76 35.03 36.32 37.87 38.00 36.93 36.53 35.50 34.11 34.70 31.94 30.14 29.43 29.43 31.52 33.20 34.12 32.59 34.71 39.81 42.29 46.09 50.74 51.53 50.50 49.84 49.44 49.19 49.04 49.97 51.03 51.24 51.36
28.46 28.19 28.30 28.34 28.63 29.38 29.39 29.56 29.96 30.23 31.60 31.55 32.54 33.59 35.22 36.71 37.56 36.29 35.37 33.59 32.58 34.49 32.84 29.61 29.09 30.73 32.13 32.68 34.77 38.63 38.15 43.48 47.65 50.47 49.76 48.74 48.51 48.50 47.92 48.31 49.58 50.20 50.28
28.91 28.46 28.13 28.20 28.31 27.78 28.77 28.60 27.76 27.66 28.68 30.39 30.89 31.37 31.93 33.72 34.39 35.09 36.05 35.92 33.83 30.70 32.34 35.64 28.39 30.39 31.20 32.08 34.01 34.60 35.84 39.14 44.28 47.74 49.21 48.65 47.69 47.30 46.95 47.02 47.99 49.10 49.67
25.30 25.32 25.29 25.50 25.54 26.21 26.58 26.58 26.15 26.47 26.74 27.14 28.98 29.40 30.39 31.94 32.30 32.41 32.17 33.34 33.27 32.58 30.53 32.24 33.54 29.88 30.61 32.14 32.84 33.72 34.23 37.68 40.62 44.64 46.72 47.36 46.98 46.04 45.74 45.90 46.55 47.44 48.59
24.70 24.68 24.90 24.50 24.20 24.18 24.18 24.03 24.28 25.09 25.19 25.54 26.21 26.40 27.69 29.71 30.34 31.50 30.99 31.26 31.67 30.93 30.23 32.83 32.94 30.88 29.20 29.57 30.68 32.00 33.66 33.92 35.03 40.87 44.26 45.73 45.86 45.50 44.97 44.83 45.37 45.86 46.75
24.71 24.32 24.34 24.63 23.81 24.00 23.38 22.93 22.63 23.03 23.04 23.59 24.68 25.36 25.57 28.18 27.57 29.24 30.11 30.22 30.57 30.83 30.18 29.15 32.05 32.02 28.07 29.36 30.15 30.62 31.48 32.88 32.91 36.39 41.20 44.05 44.73 44.54 44.51 44.56 44.47 44.82 44.97
23.87 23.94 23.92 23.31 23.22 23.38 23.08 23.03 22.69 22.66 22.57 22.75 23.72 24.54 25.23 25.64 25.79 26.69 27.59 28.59 29.46 30.90 30.15 29.27 29.19 31.29 29.93 27.52 28.42 29.29 30.80 30.83 30.97 34.77 38.44 41.42 43.28 43.81 43.89 43.97 43.91 43.79 43.50
22.91 23.04 23.10 23.10 22.98 22.83 22.98 22.82 23.01 22.34 22.46 23.39 24.02 24.21 24.45 24.88 25.19 25.54 26.20 26.64 27.85 28.25 28.77 28.27 28.37 28.97 29.86 29.06 28.09 27.90 27.22 28.97 29.59 30.16 33.52 35.79 39.40 41.30 42.80 43.26 42.72 41.74 42.04
21.60 21.27 20.56 20.10 20.60 21.13 22.38 22.46 23.42 23.00 22.72 22.69 23.34 23.79 24.00 24.66 27.55 27.83 26.30 26.51 27.01 26.97 27.18 26.97 26.83 27.44 28.14 25.07 26.59 28.68 28.31 30.41 29.00 30.76 28.56 29.56 32.07 35.46 37.36 41.02 39.68 40.16 41.60
17.36 17.25 17.21 17.16 16.94 19.40 22.56 23.78 23.60 21.58 22.20 22.36 22.02 22.69 23.15 23.05 24.30 26.94 28.44 29.68 29.32 26.39 26.15 26.94 26.77 25.95 26.83 27.78 28.63 28.82 27.97 27.41 26.01 29.09 28.81 27.65 29.60 31.03 33.64 35.21 39.15 40.50 41.34
14.47 13.94 14.03 14.24 13.77 14.37 19.13 21.19 21.48 19.31 18.31 17.95 18.67 19.90 21.28 22.72 22.49 22.39 24.21 25.91 26.25 27.96 29.37 27.36 26.57 27.56 27.86 28.66 28.63 27.85 28.78 28.79 28.72 27.78 28.32 26.93 28.36 27.93 31.56 33.35 37.94 40.22 40.60
11.18 10.88 10.86 10.75 11.30 12.72 16.89 17.95 18.46 16.56 15.77 15.91 16.35 17.03 17.32 18.02 19.33 19.74 19.52 19.15 20.50 22.04 23.71 25.58 26.16 26.75 28.21 30.60 30.62 30.86 29.93 29.54 30.42 30.53 28.46 26.14 27.70 26.78 29.11 30.63 35.42 38.15 39.94
8.20 7.37 9.75 8.19 7.13 7.68 13.54 16.05 16.31 13.74 13.90 13.80 15.09 15.81 16.17 16.28 18.77 21.00 18.90 17.00 17.69 19.33 24.00 26.24 27.66 29.48 31.78 33.45 33.07 31.15 28.71 26.92 26.55 27.53 26.31 27.10 28.09 26.08 27.17 27.70 30.15 35.70 38.43
7.49 7.78 7.21 6.44 6.10 4.80 11.11 14.53 15.62 13.23 11.24 12.55 13.84 15.09 17.54 17.52 20.00 21.36 18.32 17.13 15.69 17.46 20.15 21.48 22.42 24.69 27.22 27.93 32.69 31.94 30.67 28.67 28.03 27.14 28.79 25.23 26.67 24.82 21.72 25.73 27.76 29.15 32.85
MSLP
1019.07 1019.62 1020.01 1020.36 1020.67 1021.10 1021.46 1021.79 1021.99 1022.14 1022.45 1022.63 1022.68 1022.71 1022.65 1022.55 1022.45 1022.39 1022.30 1022.02 1021.80 1021.51 1021.06 1020.85 1020.89 1020.86 1020.92 1020.95 1021.04 1021.13 1021.19 1021.23 1021.31 1021.42 1021.35 1021.18 1021.27 1021.30 1021.36 1021.48 1021.35 1021.22 1021.31
1019.02 1019.32 1019.87 1020.19 1020.51 1020.77 1021.30 1021.69 1022.05 1022.44 1022.66 1022.78 1022.83 1022.80 1022.78 1022.73 1022.64 1022.50 1022.32 1022.13 1021.79 1021.49 1021.19 1020.91 1020.85 1020.89 1020.96 1020.96 1020.96 1021.03 1021.20 1021.34 1021.47 1021.72 1021.72 1021.56 1021.69 1021.59 1021.52 1021.78 1021.75 1021.66 1021.71
1018.72 1018.90 1019.51 1020.13 1020.32 1020.35 1020.96 1021.61 1022.01 1022.31 1022.64 1022.84 1023.00 1022.97 1022.92 1022.81 1022.67 1022.50 1022.34 1022.19 1021.99 1021.68 1021.31 1020.97 1020.79 1020.77 1020.71 1020.61 1020.87 1021.01 1021.24 1021.50 1021.63 1022.01 1021.92 1021.90 1021.89 1021.85 1022.05 1022.15 1022.02 1021.95 1021.84
1018.65 1019.09 1019.50 1019.81 1019.92 1020.48 1020.75 1021.31 1021.90 1022.34 1022.49 1022.67 1022.79 1022.90 1022.97 1022.88 1022.75 1022.65 1022.53 1022.37 1022.19 1021.94 1021.65 1021.28 1021.04 1020.82 1020.73 1020.83 1020.91 1021.03 1021.08 1021.53 1021.68 1022.12 1021.98 1022.02 1021.99 1021.97 1022.10 1022.31 1022.08 1022.18 1022.08
1018.69 1018.97 1019.33 1019.59 1019.91 1020.30 1020.77 1021.18 1021.94 1022.34 1022.61 1022.89 1023.02 1022.99 1022.91 1022.84 1022.71 1022.52 1022.53 1022.47 1022.37 1022.16 1021.98 1021.67 1021.39 1021.18 1020.86 1020.82 1020.95 1020.82 1021.01 1021.38 1021.58 1022.00 1022.04 1022.06 1022.07 1022.07 1022.22 1022.39 1022.37 1022.35 1022.32
1019.10 1019.27 1019.44 1019.73 1020.02 1020.36 1020.94 1021.28 1021.76 1022.29 1022.71 1022.88 1023.06 1023.14 1023.14 1023.03 1022.77 1022.57 1022.44 1022.31 1022.21 1022.14 1022.07 1021.90 1021.66 1021.39 1021.14 1021.05 1021.05 1020.77 1020.90 1021.26 1021.50 1021.92 1021.93 1022.10 1022.14 1022.15 1022.26 1022.22 1022.36 1022.39 1022.39
1020.06 1020.08 1020.20 1020.35 1020.52 1020.80 1021.07 1021.51 1021.95 1022.34 1022.65 1022.94 1023.31 1023.15 1022.85 1022.54 1022.56 1022.48 1022.43 1022.25 1022.02 1021.91 1022.01 1022.08 1021.95 1021.73 1021.50 1021.24 1021.03 1020.70 1020.61 1020.94 1021.30 1021.67 1022.02 1022.08 1022.15 1022.12 1022.25 1022.39 1022.35 1022.37 1022.31
1021.53 1021.14 1021.03 1021.11 1021.27 1021.55 1021.83 1022.07 1022.18 1022.51 1022.70 1022.83 1023.24 1023.78 1023.33 1022.54 1022.24 1021.97 1022.13 1022.20 1022.13 1022.09 1021.98 1021.84 1021.92 1021.87 1021.76 1021.66 1021.46 1021.15 1020.74 1020.52 1020.73 1021.24 1021.82 1022.03 1022.17 1022.17 1022.24 1022.29 1022.34 1022.35 1022.33
1023.15 1022.81 1022.47 1022.14 1021.88 1021.85 1022.23 1022.43 1022.67 1022.96 1023.00 1023.07 1023.12 1023.30 1023.59 1023.67 1023.27 1022.22 1022.12 1022.19 1022.37 1022.52 1022.35 1022.10 1021.79 1021.68 1021.70 1021.71 1021.53 1021.33 1021.01 1020.67 1020.36 1020.58 1021.23 1021.67 1021.89 1022.11 1022.19 1022.19 1022.24 1022.31 1022.40
1024.18 1024.07 1023.80 1023.51 1023.23 1022.90 1022.83 1022.83 1022.65 1022.94 1023.11 1023.21 1023.32 1023.25 1023.40 1023.40 1023.60 1022.83 1022.42 1022.06 1022.05 1022.00 1021.96 1022.07 1021.93 1021.63 1021.49 1021.51 1021.45 1021.24 1021.03 1020.75 1020.49 1020.27 1020.77 1021.25 1021.59 1021.75 1021.87 1022.03 1022.15 1022.27 1022.37
1025.25 1025.13 1024.76 1024.42 1024.03 1024.03 1024.19 1023.78 1023.48 1023.31 1023.18 1023.34 1023.35 1023.18 1023.30 1023.40 1023.54 1023.69 1022.72 1022.26 1021.95 1021.52 1021.48 1021.41 1021.32 1021.40 1021.15 1021.05 1021.04 1021.01 1020.90 1020.71 1020.39 1020.11 1020.30 1020.92 1021.30 1021.49 1021.57 1021.59 1021.75 1022.04 1022.24
1026.25 1026.23 1025.87 1025.60 1025.24 1024.82 1024.42 1024.34 1024.09 1024.18 1023.88 1023.56 1023.16 1023.20 1023.30 1023.22 1023.10 1023.21 1023.08 1022.31 1021.99 1021.25 1020.88 1020.98 1021.04 1020.66 1020.41 1020.43 1020.38 1020.34 1020.45 1020.42 1020.15 1019.97 1020.10 1020.47 1020.86 1021.07 1021.23 1021.32 1021.40 1021.52 1021.73
1027.00 1026.95 1026.41 1026.36 1026.23 1025.90 1025.18 1024.75 1024.46 1024.36 1024.54 1024.34 1024.00 1023.35 1023.11 1022.89 1022.71 1022.80 1022.65 1022.08 1021.75 1021.28 1020.82 1020.43 1020.33 1020.10 1019.86 1019.87 1019.71 1019.64 1019.79 1019.92 1019.89 1019.84 1020.01 1020.34 1020.59 1020.83 1020.95 1020.96 1020.96 1021.12 1021.35
1027.13 1027.46 1027.07 1026.41 1026.36 1026.30 1026.09 1025.30 1024.81 1024.77 1024.52 1024.50 1024.44 1024.11 1023.65 1023.02 1022.71 1022.40 1022.25 1022.20 1021.34 1020.79 1020.48 1020.42 1019.93 1019.72 1019.46 1019.21 1019.06 1019.20 1019.29 1019.26 1019.30 1019.40 1019.65 1019.99 1020.32 1020.56 1020.72 1020.75 1020.68 1020.74 1020.91
1027.26 1027.38 1027.37 1026.78 1026.23 1025.95 1025.92 1025.69 1025.26 1024.87 1024.82 1024.58 1024.33 1024.14 1023.94 1023.33 1022.85 1022.49 1022.09 1021.84 1021.69 1020.66 1019.37 1019.39 1019.81 1018.92 1018.86 1018.71 1018.39 1018.60 1018.67 1018.66 1018.66 1018.86 1019.07 1019.38 1019.74 1019.98 1020.19 1020.42 1020.49 1020.38 1020.38
1027.74 1027.57 1027.48 1027.31 1026.68 1026.26 1025.88 1026.02 1025.54 1025.14 1025.06 1024.56 1024.22 1024.07 1023.63 1023.06 1022.84 1022.50 1021.99 1021.78 1021.44 1021.14 1019.58 1019.15 1019.05 1018.79 1018.38 1018.26 1018.12 1018.17 1018.07 1017.93 1018.07 1018.09 1018.32 1018.56 1018.95 1019.37 1019.65 1019.71 1019.95 1020.15 1020.18
1028.03 1027.90 1027.56 1027.18 1026.83 1026.58 1026.16 1026.35 1025.75 1025.41 1024.93 1024.56 1024.10 1023.81 1023.48 1022.91 1022.50 1022.24 1021.57 1021.56 1021.35 1021.00 1019.95 1018.59 1018.48 1018.20 1018.03 1017.78 1017.58 1017.40 1017.39 1017.59 1017.50 1017.39 1017.41 1017.61 1017.96 1018.36 1018.74 1019.09 1019.13 1019.37 1019.57
1027.73 1027.66 1027.41 1026.97 1026.78 1026.35 1026.17 1025.99 1025.76 1025.35 1024.81 1024.52 1023.88 1023.72 1023.22 1022.55 1022.17 1021.83 1021.41 1020.81 1020.71 1020.52 1020.16 1018.85 1018.26 1017.89 1017.62 1017.34 1017.02 1016.93 1016.82 1016.68 1016.85 1016.90 1016.74 1016.77 1016.87 1017.17 1017.57 1018.07 1018.40 1018.68 1018.99
1027.76 1027.51 1027.41 1027.22 1026.84 1026.55 1026.31 1025.98 1025.40 1024.95 1024.44 1024.20 1023.77 1023.39 1022.74 1022.36 1021.81 1021.52 1021.07 1020.63 1019.96 1019.67 1019.46 1018.85 1017.98 1017.39 1016.68 1016.99 1016.97 1016.44 1016.42 1016.35 1016.23 1016.26 1016.30 1016.15 1016.09 1016.26 1016.55 1017.04 1017.51 1017.77 1018.08
1027.94 1027.59 1027.27 1026.91 1026.63 1026.30 1025.91 1025.49 1025.04 1024.50 1024.01 1023.37 1023.05 1022.64 1022.07 1021.71 1021.28 1021.03 1020.68 1020.02 1019.52 1019.08 1018.78 1018.11 1017.23 1016.94 1016.59 1016.25 1016.53 1016.31 1016.17 1016.04 1015.75 1015.65 1015.63 1015.69 1015.68 1015.66 1015.45 1015.57 1016.10 1016.72 1017.23
1027.84 1027.64 1027.27 1026.91 1026.64 1026.29 1025.58 1024.96 1024.49 1023.94 1023.38 1022.71 1022.19 1021.79 1021.32 1020.86 1020.57 1020.28 1019.91 1019.14 1018.95 1018.37 1018.14 1017.50 1016.53 1016.16 1016.10 1016.00 1015.79 1015.45 1014.94 1014.94 1014.66 1014.78 1014.91 1014.75 1015.02 1015.11 1014.94 1014.80 1014.88 1015.45 1016.23
1028.07 1027.85 1027.48 1027.10 1026.72 1026.28 1025.65 1024.99 1024.34 1023.66 1022.95 1022.17 1021.27 1020.70 1020.48 1020.27 1019.88 1019.47 1019.02 1018.54 1018.23 1017.67 1017.39 1016.87 1015.99 1015.14 1014.60 1014.62 1014.71 1014.48 1014.19 1014.24 1013.99 1013.89 1014.25 1013.85 1014.05 1013.47 1013.68 1013.88 1013.85 1014.28 1014.87
1028.20 1027.92 1027.53 1027.11 1026.64 1026.29 1025.67 1024.82 1024.19 1023.52 1022.82 1022.16 1021.46 1020.73 1020.00 1019.58 1019.29 1018.94 1018.55 1018.08 1017.50 1017.15 1016.63 1016.07 1014.97 1014.24 1013.92 1013.85 1013.93 1013.58 1013.24 1012.87 1012.29 1012.83 1013.19 1012.59 1012.99 1012.33 1012.13 1012.55 1012.81 1012.82 1013.24
1028.37 1027.98 1027.51 1027.18 1026.62 1026.12 1025.42 1024.68 1023.93 1023.08 1022.40 1021.86 1021.36 1020.76 1020.13 1019.48 1019.18 1018.79 1018.19 1017.52 1016.92 1016.39 1015.89 1015.48 1014.56 1013.34 1013.24 1012.87 1012.65 1012.32 1012.14 1011.65 1011.18 1011.58 1011.91 1011.54 1011.79 1011.42 1011.72 1011.51 1011.93 1012.25 1012.29
1028.38 1027.95 1027.48 1027.00 1026.57 1025.91 1025.31 1024.21 1023.34 1022.55 1021.78 1021.23 1020.84 1020.26 1019.71 1019.10 1018.75 1018.19 1017.35 1016.64 1015.87 1014.91 1015.03 1014.34 1013.55 1012.59 1011.94 1011.54 1011.43 1011.48 1010.96 1011.12 1010.03 1010.14 1011.04 1010.66 1010.45 1010.78 1010.99 1010.74 1010.62 1011.01 1011.51
1028.13 1027.77 1027.23 1026.90 1026.27 1025.44 1024.87 1023.79 1022.82 1022.02 1021.12 1020.45 1019.94 1019.36 1018.86 1018.11 1017.49 1016.90 1016.35 1015.81 1014.73 1014.33 1013.95 1013.20 1012.54 1011.67 1010.98 1010.21 1009.75 1009.72 1009.43 1008.94 1009.02 1009.01 1009.05 1010.33 1009.94 1010.12 1010.56 1009.67 1009.93 1010.44 1010.51
Wind_Speed
5 4 4 3 3 2 3 3 3 3 2 3 3 3 3 3 3 2 2 7 7 8 9 6 7 6 6 6 6 5 4 3 1 3 6 5 5 6 5 5 6 7 9
4 5 4 4 4 4 4 4 4 3 3 1 4 4 4 3 3 3 3 3 7 8 10 9 7 7 8 8 8 8 5 2 1 2 7 1 4 1 2 7 6 5 6
6 7 5 3 4 5 6 4 2 2 2 1 4 3 3 4 4 4 4 3 4 7 7 9 9 9 8 8 10 7 5 3 4 1 7 5 2 1 1 3 3 3 5
3 3 3 4 4 4 4 4 3 2 3 3 2 3 3 3 5 5 4 4 3 3 5 6 6 9 10 8 8 8 8 6 7 5 5 2 2 1 3 4 2 3 3
4 4 3 3 4 4 3 3 1 2 2 2 4 3 4 4 5 3 5 5 5 4 3 5 4 5 6 9 10 12 11 9 9 7 6 3 2 1 3 6 5 4 4
3 1 1 2 3 3 3 2 2 2 1 2 2 4 4 5 4 5 5 4 5 5 5 5 4 4 4 5 10 18 11 11 9 9 8 9 8 8 8 7 6 7 6
12 7 4 4 1 2 1 3 2 3 1 2 2 3 3 6 6 5 4 5 6 5 5 5 4 3 4 8 10 12 15 14 12 12 9 10 10 8 9 10 9 8 7
14 11 9 6 6 4 5 2 2 1 1 3 2 1 5 5 3 5 4 5 6 4 5 6 6 6 5 4 7 12 17 17 15 13 13 12 11 11 10 10 11 11 9
15 14 13 9 7 4 3 3 1 2 3 1 3 1 2 4 4 3 3 3 4 4 5 5 6 6 6 5 8 10 15 17 19 17 15 14 13 12 13 12 11 11 11
13 13 12 12 11 7 7 4 2 2 1 4 1 5 2 2 2 6 3 3 4 7 6 5 6 6 6 5 9 11 14 16 15 16 17 15 14 14 13 13 13 12 12
12 13 12 11 10 8 9 9 7 4 1 3 2 1 2 2 2 3 9 5 2 4 5 7 7 6 7 6 5 8 16 17 17 14 17 17 16 15 15 15 14 14 14
8 12 11 10 9 8 8 7 7 8 5 4 3 3 3 3 2 4 5 6 8 5 4 4 6 8 7 7 9 13 16 17 17 15 16 18 17 16 16 16 16 15 15
6 9 8 9 7 7 7 6 6 7 7 6 6 4 3 4 3 4 5 10 7 3 4 3 5 6 7 6 8 14 15 18 18 15 15 17 18 18 18 19 18 18 17
4 6 6 5 6 7 8 7 4 4 5 5 8 7 5 4 3 4 6 6 12 11 5 6 3 5 6 7 11 14 10 19 22 20 20 20 19 19 20 20 20 19 18
6 7 8 9 8 7 8 8 5 5 5 4 5 5 5 5 4 5 6 6 7 10 12 7 4 5 5 5 10 8 10 16 24 23 21 22 22 22 22 22 22 21 20
6 6 6 6 7 7 8 9 7 6 6 5 5 6 5 4 5 4 4 5 6 9 13 1 6 5 4 4 8 8 11 17 20 24 24 22 23 23 23 23 22 22 22
5 5 5 6 6 6 5 6 6 8 9 9 8 6 9 7 5 5 4 4 6 5 11 11 5 4 4 7 7 7 9 10 10 23 26 25 24 23 24 25 24 24 24
5 6 6 8 7 8 6 6 8 7 7 10 11 10 10 7 7 7 6 7 7 8 8 15 12 7 7 7 6 8 8 8 9 17 27 27 26 26 25 25 25 24 24
6 7 7 8 9 9 10 9 9 10 9 9 10 11 12 10 10 7 7 8 7 7 8 9 11 8 5 3 6 6 7 7 6 16 23 27 27 27 26 25 25 24 23
6 7 8 9 10 10 11 10 11 11 10 11 12 12 12 11 12 11 10 10 9 9 9 9 10 9 8 5 5 4 5 5 8 7 15 17 20 26 28 28 27 26 24
6 8 11 11 11 11 9 12 13 13 14 15 15 14 13 14 21 19 12 12 11 9 9 10 11 9 9 4 7 5 9 7 9 9 8 9 10 11 14 25 22 25 25
9 10 10 11 11 9 20 24 22 16 16 16 16 16 15 15 18 25 26 26 21 13 15 12 12 13 13 6 7 9 8 7 8 8 9 10 10 13 12 13 23 26 28
10 10 11 11 12 12 22 24 26 15 16 16 17 16 15 12 15 14 19 26 25 27 29 19 20 18 15 11 6 10 12 11 12 4 8 9 9 14 11 13 28 30 30
10 10 11 12 12 11 24 26 27 17 15 16 16 16 16 17 16 18 18 18 19 18 19 14 17 19 17 15 12 12 13 14 11 8 8 12 7 11 9 10 26 30 31
9 9 10 12 12 13 24 26 23 15 14 15 15 15 14 15 21 26 18 17 19 19 20 32 35 37 36 33 26 10 12 11 13 10 9 9 8 4 7 9 11 30 30
10 9 11 11 13 14 21 25 22 11 13 12 13 15 20 21 26 26 17 15 17 16 15 15 16 22 27 25 31 22 15 15 13 12 9 10 8 5 4 4 9 9 13
Wind_Direction
160 160 172 172 173 155 182 186 181 179 219 291 291 287 280 267 251 262 292 304 296 283 263 232 232 224 219 208 188 198 137 54 70 353 11 68 70 70 57 15 11 21 17
165 174 177 185 182 175 182 185 186 199 233 266 285 281 272 275 277 274 275 295 308 298 274 245 237 234 226 215 205 194 150 130 176 277 337 172 67 46 246 1 333 299 348
185 177 172 180 218 183 169 159 162 150 208 244 263 276 282 278 274 265 264 273 298 317 313 267 238 230 234 220 193 213 167 222 246 234 268 298 161 163 170 275 277 253 266
172 165 163 192 183 168 168 164 164 207 230 214 229 249 278 292 286 278 281 272 271 286 316 342 309 254 224 228 221 223 209 214 201 237 240 190 103 124 232 282 283 315 287
216 188 202 199 162 158 176 159 146 191 206 258 264 268 263 265 269 284 265 267 265 268 275 297 331 335 303 214 239 235 210 225 209 224 221 213 224 202 233 250 243 260 253
344 256 232 193 156 147 131 149 158 140 115 216 261 285 293 281 269 251 251 259 255 259 264 268 281 290 307 255 250 240 220 210 227 227 229 241 238 242 240 235 238 240 244
21 17 13 15 30 198 169 127 105 184 202 102 24 319 280 244 253 251 252 249 251 244 252 267 272 277 284 275 261 244 231 225 230 230 224 234 238 239 236 239 236 235 230
24 32 30 26 32 15 18 27 116 108 251 182 150 121 320 325 287 254 238 247 251 253 252 247 258 263 263 271 269 265 252 241 228 219 234 237 241 240 242 242 240 237 233
24 24 21 20 28 38 26 10 8 284 315 251 233 188 300 259 323 338 314 273 289 277 277 269 258 254 255 252 259 265 262 261 242 218 221 230 232 239 243 243 242 241 239
29 24 23 23 19 16 18 354 342 263 189 270 291 228 232 152 295 311 308 301 253 242 238 252 257 255 246 244 250 252 260 264 268 231 215 221 226 230 234 241 243 241 239
28 22 22 21 28 25 8 3 352 331 270 270 240 286 254 221 179 228 288 302 291 253 242 236 236 239 243 234 236 249 257 262 258 225 204 212 222 227 232 234 236 240 241
20 18 14 15 18 20 20 5 357 347 329 295 258 241 229 257 250 234 259 281 265 282 255 231 233 244 239 229 231 233 244 252 250 204 197 206 217 223 231 233 233 231 232
16 6 14 11 8 1 11 12 17 8 352 339 321 304 275 242 234 261 273 281 279 278 287 251 238 238 244 227 230 222 231 239 240 217 210 212 221 226 230 232 230 229 229
21 352 359 12 4 2 357 4 17 6 3 345 330 323 304 289 277 247 254 286 290 280 263 246 249 234 236 231 234 227 225 228 232 230 222 224 231 233 232 232 231 228 227
11 2 358 357 360 2 359 355 358 355 347 328 319 309 306 296 287 270 268 260 255 288 281 269 257 235 242 234 233 218 221 229 230 232 232 230 230 231 231 232 232 228 223
356 350 347 342 344 345 350 349 345 337 331 326 318 307 303 290 282 267 257 261 253 259 279 285 267 249 246 242 244 227 228 228 227 227 229 229 227 229 231 229 229 231 228
335 333 330 331 332 326 335 324 321 320 328 320 316 299 294 291 291 279 245 250 261 246 266 281 264 247 258 245 247 222 225 224 230 227 225 224 223 223 226 230 228 226 227
337 330 330 332 327 327 326 325 314 310 301 304 303 303 296 298 287 280 278 262 249 253 263 276 278 266 230 244 238 242 230 225 229 234 229 227 222 220 221 224 227 227 227
327 325 323 321 319 319 318 315 307 303 295 282 284 280 287 287 289 285 269 274 266 258 252 261 273 274 258 221 254 245 236 234 231 235 238 235 230 224 220 221 225 224 222
312 314 315 313 311 311 310 303 300 296 289 290 289 284 283 278 278 282 281 279 276 270 264 259 265 267 264 235 233 240 247 228 237 224 235 238 237 232 224 218 220 221 220
330 325 322 316 315 313 309 309 305 299 293 289 285 283 282 281 282 283 284 280 276 274 274 271 269 264 253 229 234 234 244 240 231 224 229 226 227 232 232 230 225 216 218
329 323 317 313 313 310 312 310 306 300 296 293 291 289 288 284 285 287 285 285 280 275 271 268 270 266 262 240 238 242 243 235 255 184 216 235 210 221 222 224 221 216 215
322 319 314 313 312 310 309 309 308 301 296 292 290 292 291 289 292 293 293 289 287 283 274 272 270 265 268 256 235 240 240 235 243 209 212 245 207 234 219 226 221 216 213
317 313 312 308 305 308 311 309 306 298 295 293 291 291 289 291 288 290 287 281 275 270 269 274 269 271 268 268 245 243 240 243 248 241 189 248 188 232 223 220 226 224 220
308 306 302 309 304 302 305 306 308 299 292 292 290 287 287 288 287 286 280 277 274 271 274 274 274 275 272 263 258 255 239 236 245 236 202 240 225 224 211 222 216 223 225
298 301 300 302 296 293 299 304 307 293 291 291 289 286 284 287 290 293 291 288 287 292 295 288 271 269 270 267 260 245 248 237 240 245 208 221 222 159 248 203 208 214 218